Flag for Germany Weather past 2 weeks in Weißenfels, Saxony-Anhalt, Germany

Now
52 °F

Overcast.


Feels Like: 50 °F
Forecast: 42 / 60 °F
Wind: 8 mph from Northwest

Location: Leipzig-Schkeuditz

Current Time: Sep 22, 2014 at 2:58:22 PM

Latest Report: Sep 22, 2014 at 2:00 PM


Visibility: 25 mi

Pressure: 29.89 "Hg

Humidity: 69%

Dew point: 42 °F

Location of WeißenfelsLocation

Historic Weather in Weißenfels — Graph

°F

Weißenfels temperature yesterday

Maximum temperature yesterday: 64 °F (at 3:00 PM)
Minimum temperature yesterday: 56 °F (at 11:00 PM)
Average temperature yesterday: 60 °F

Past Weeks' High & Low Weather Summary

 TemperatureHumidityPressure
High77 °F (Sep 7, 4:00 PM)99% (Sep 13, 6:00 AM)30.15 "Hg (Sep 13, 6:00 AM)
Low51 °F (Sep 9, 7:00 AM)40% (Sep 17, 5:00 PM)29.87 "Hg (Sep 21, 3:00 PM)
Average62 °F85%30.01 "Hg
* Reported Sep 7 2:00 PM — Sep 22 2:00 PM, Weißenfels, Weather by CustomWeather, © 2014

Note: Actual official high and low records may vary slightly from our data, if they occured in-between our weather recording intervals... More about our weather records

Advertising

Weißenfels weather history for previous 24 hours

 ConditionsComfort  
Time TempWeatherWind HumidityBarometerVisibility
2:00 PM
Sep 22
52 °FOvercast.8 mph69%29.89 "Hg25 mi
1:00 PM53 °FOvercast.6 mph70%29.89 "Hg19 mi
12:00 PM54 °FRain showers. Overcast.6 mph77%29.89 "Hg6 mi
11:00 AM55 °FOvercast.9 mph77%29.89 "Hg14 mi
10:00 AM55 °FOvercast.9 mph82%29.90 "Hg12 mi
9:00 AM53 °FOvercast.7 mph83%29.91 "Hg11 mi
8:00 AM53 °FOvercast.7 mph91%29.92 "Hg9 mi
7:00 AM53 °FOvercast.6 mph86%29.92 "Hg19 mi
6:00 AM53 °FOvercast.5 mph85%29.92 "Hg16 mi
5:00 AM53 °FOvercast.7 mph88%29.92 "Hg16 mi
4:00 AM53 °FOvercast.6 mph89%29.92 "Hg19 mi
3:00 AM53 °FOvercast.6 mph90%29.93 "Hg22 mi
2:00 AM53 °FOvercast.6 mph85%29.93 "Hg22 mi
1:00 AM53 °FPassing clouds.6 mph85%29.94 "Hg22 mi
12:00 AM55 °FPassing clouds.5 mph82%29.93 "Hg22 mi
11:00 PM
Sep 21
56 °FPassing clouds.6 mph82%29.93 "Hg22 mi
10:00 PM56 °FPassing clouds.6 mph87%29.92 "Hg22 mi
9:00 PM58 °FOvercast.5 mph89%29.92 "Hg19 mi
8:00 PM59 °FOvercast.5 mph88%29.90 "Hg16 mi
7:00 PM60 °FOvercast.3 mph93%29.89 "Hg16 mi
6:00 PM60 °FLight rain. Overcast.3 mph92%29.88 "Hg12 mi
5:00 PM61 °FSprinkles. Overcast.3 mph92%29.88 "Hg5 mi
4:00 PM62 °FSprinkles. Overcast.5 mph88%29.87 "Hg3 mi
3:00 PM64 °FOvercast.2 mph79%29.87 "Hg9 mi
2:00 PM64 °FOvercast.2 mph84%29.89 "Hg7 mi
Weather by CustomWeather, © 2014

See weather overviewHow to use our weather pages